Location: Nelson
(41.2830°S, 173.2830°E)
Time: 18:03:54
(UTC+12:00)

Cosmos 1354 Rocket - Pass Details

Date: 14 May 2021
Orbit: 763 x 784 km, 74.0° (Epoch: 19 June)

Event Time Altitude Azimuth Distance (km) Brightness Sun altitude
Rises 17:40:35 0° 193° (SSW) 3,287 7.2 -4.6°
Reaches altitude 10° 17:43:09 10° 185° (S) 2,349 6.4 -5.0°
Maximum altitude 17:48:08 39° 116° (ESE) 1,149 4.5 -5.9°
Drops below altitude 10° 17:53:03 10° 47° (NE) 2,312 6.2 -6.8°
Sets 17:55:33 0° 39° (NE) 3,228 7.0 -7.2°
